Location: Carrières
(48.9495°N, 2.0407°E)
Time: 13:40:19
(UTC+00:00)

Cosmos 1844 Rocket - Visible Passes

Search period start: 25 September 2023 00:00
Search period end: 05 October 2023 00:00
Orbit: 825 x 843 km, 71.0° (Epoch: 24 September)

Date Brightness Start Highest point End Pass type
(mag) Time Alt. Az. Time Alt. Az. Time Alt. Az.
25 Sep 3.1 18:21:19 10° NNW 18:26:51 67° WSW 18:32:22 10° SSE visible
25 Sep 5.7 20:08:40 10° W 20:09:38 10° W 20:10:35 10° WSW visible
26 Sep 3.0 18:03:57 10° NNW 18:09:32 72° WSW 18:15:04 10° SSE visible
26 Sep 5.6 19:50:31 10° WNW 19:52:23 12° W 19:54:14 10° WSW visible
27 Sep 5.6 19:32:42 10° WNW 19:35:08 13° W 19:37:33 10° WSW visible
28 Sep 5.5 19:15:00 10° WNW 19:17:51 14° W 19:20:43 10° SW visible
29 Sep 5.5 18:57:23 10° WNW 19:00:36 16° W 19:03:49 10° SW visible
30 Sep 5.5 18:39:48 10° WNW 18:43:20 17° W 18:46:51 10° SW visible
01 Oct 5.5 18:22:15 10° WNW 18:26:04 19° W 18:29:51 10° SW visible
02 Oct 5.5 18:04:45 10° NW 18:08:47 21° W 18:12:49 10° SSW visible
